FW4306 Weather Reports


time (UTC)temp
C
wind
direction
speed
KPH
gust
KPH
rain 1hr
cm
rain 24hr
cm
rain mn
cm
humidity
%
barometer
mb
20260505153023 12 199 8.0 12.9 0.00 0.00 0.00 91 1015.8
20260505152506 12 203 8.0 12.9 0.00 0.00 0.00 91 1015.7
20260505152007 12 190 6.4 14.5 0.00 0.00 0.00 91 1015.7
20260505151519 12 212 8.0 14.5 0.00 0.00 0.00 92 1015.7
20260505151007 12 196 9.7 14.5 0.00 0.00 0.00 91 1015.6
20260505150507 11 202 8.0 14.5 0.00 0.00 0.00 92 1015.5
20260505140512 11 195 9.7 14.5 0.00 0.00 0.00 92 1015.0
20260505125003 11 194 12.9 17.7 0.00 0.00 0.00 93 1014.2
20260505124507 11 143 12.9 17.7 0.00 0.00 0.00 93 1014.1
20260505124003 11 198 11.3 16.1 0.00 0.00 0.00 93 1014.1
20260505123502 11 234 9.7 17.7 0.00 0.00 0.00 93 1014.1
20260505123004 11 211 11.3 17.7 0.00 0.00 0.00 93 1014.1
20260505122502 11 205 12.9 17.7 0.00 0.00 0.00 93 1013.9
20260505122002 11 188 11.3 16.1 0.00 0.00 0.00 93 1013.9
20260505121504 11 206 11.3 17.7 0.00 0.00 0.00 93 1013.9
20260505121003 11 193 9.7 19.3 0.00 0.00 0.00 93 1013.9
20260505120503 11 181 14.5 19.3 0.00 0.00 0.00 93 1013.8
20260505120004 11 209 9.7 19.3 0.00 0.00 0.00 93 1013.7
20260505115507 11 186 12.9 19.3 0.00 0.00 0.00 93 1013.7
20260505115003 11 207 9.7 17.7 0.00 0.00 0.00 93 1013.7
20260505114505 11 196 14.5 17.7 0.00 0.00 0.00 93 1013.6
20260505114003 11 194 11.3 17.7 0.00 0.00 0.00 93 1013.6
20260505113502 11 197 12.9 17.7 0.00 0.00 0.00 93 1013.5
20260505113005 11 193 12.9 17.7 0.00 0.00 0.00 93 1013.5
20260505112504 11 208 12.9 16.1 0.00 0.00 0.00 93 1013.4
20260505112001 11 194 9.7 16.1 0.00 0.00 0.00 93 1013.5
20260505111502 11 190 11.3 16.1 0.00 0.00 0.00 93 1013.5
20260505111002 11 198 8.0 19.3 0.00 0.00 0.00 93 1013.5
20260505110503 11 200 9.7 19.3 0.00 0.00 0.00 93 1013.6
20260505102003 11 207 9.7 17.7 0.00 0.00 0.00 93 1013.4
20260505101504 11 194 11.3 17.7 0.00 0.00 0.00 93 1013.3
20260505101004 11 202 11.3 16.1 0.00 0.00 0.00 94 1013.3
20260505100502 11 195 11.3 16.1 0.00 0.00 0.00 94 1013.3
20260505100004 11 228 11.3 16.1 0.00 0.00 0.00 94 1013.2
20260505095502 11 206 11.3 16.1 0.00 0.00 0.00 94 1013.2
20260505095002 11 202 11.3 14.5 0.00 0.00 0.00 94 1013.1
20260505094503 11 187 9.7 14.5 0.00 0.00 0.00 94 1013.1
20260505094003 11 205 9.7 14.5 0.00 0.00 0.00 94 1013.0
20260505093503 11 197 8.0 14.5 0.00 0.00 0.00 94 1013.0
20260505093006 11 205 9.7 16.1 0.00 0.00 0.00 93 1013.0
20260505092503 11 217 9.7 16.1 0.00 0.00 0.00 93 1013.0
20260505092004 11 207 9.7 14.5 0.00 0.00 0.00 93 1012.8
20260505091505 11 207 9.7 16.1 0.00 0.00 0.00 93 1012.8
20260505091003 11 197 9.7 16.1 0.00 0.00 0.00 93 1012.7
20260505090503 11 187 9.7 17.7 0.00 0.00 0.00 93 1012.7
20260505090006 11 198 9.7 17.7 0.00 0.00 0.00 93 1012.6
20260505085504 11 173 9.7 16.1 0.00 0.00 0.00 93 1012.6
20260505085005 11 194 9.7 16.1 0.00 0.00 0.00 93 1012.6
20260505084507 11 181 11.3 16.1 0.00 0.00 0.00 92 1012.6
20260505084004 11 199 8.0 16.1 0.00 0.00 0.00 92 1012.6
20260505083502 11 202 9.7 16.1 0.00 0.00 0.00 92 1012.5
20260505083012 11 213 8.0 16.1 0.00 0.00 0.00 92 1012.5
20260505082503 11 198 9.7 14.5 0.00 0.00 0.00 92 1012.4
20260505082004 11 196 8.0 16.1 0.00 0.00 0.00 92 1012.4
20260505081508 11 194 9.7 16.1 0.00 0.00 0.00 92 1012.4
20260505081009 11 205 11.3 16.1 0.00 0.00 0.00 92 1012.4
20260505080506 12 202 11.3 16.1 0.00 0.00 0.00 92 1012.4
20260505080023 12 223 8.0 16.1 0.00 0.00 0.00 92 1012.5
20260505075503 12 215 9.7 16.1 0.00 0.00 0.00 92 1012.4
20260505075007 12 196 11.3 16.1 0.00 0.00 0.00 92 1012.3
20260505074505 11 196 9.7 16.1 0.00 0.00 0.00 92 1012.3
20260505074004 12 195 8.0 16.1 0.00 0.00 0.00 92 1012.2
20260505073504 11 206 8.0 16.1 0.00 0.00 0.00 92 1012.3
20260505073006 12 207 9.7 16.1 0.00 0.00 0.00 91 1012.2
20260505072502 12 203 11.3 16.1 0.00 0.00 0.00 91 1012.0
20260505072003 12 196 9.7 14.5 0.00 0.00 0.00 91 1012.0
20260505071508 12 197 9.7 12.9 0.00 0.00 0.00 91 1012.0
20260505071003 12 195 8.0 12.9 0.00 0.00 0.00 91 1011.9
20260505070505 12 202 6.4 11.3 0.00 0.00 0.00 91 1011.8
20260505070009 12 203 6.4 11.3 0.00 0.00 0.00 90 1011.7
20260505065503 12 202 6.4 9.7 0.00 0.00 0.00 90 1011.7
20260505065004 12 196 6.4 9.7 0.00 0.00 0.00 90 1011.7
20260505064510 12 184 4.8 9.7 0.00 0.00 0.00 89 1011.7
20260505064004 12 195 3.2 9.7 0.00 0.00 0.00 88 1011.7
20260505063504 13 198 3.2 8.0 0.00 0.00 0.00 87 1011.8
20260505063008 13 188 0.0 4.8 0.00 0.00 0.00 87 1011.7
20260505062505 13 134 0.0 11.3 0.00 0.00 0.00 86 1011.7
20260505062004 13 206 3.2 11.3 0.00 0.00 0.00 86 1011.7
20260505061518 13 200 4.8 9.7 0.00 0.00 0.00 86 1011.6
20260505061007 13 152 3.2 9.7 0.00 0.00 0.00 85 1011.5
20260505060504 13 207 3.2 9.7 0.00 0.00 0.00 85 1011.4
20260505060012 13 192 1.6 9.7 0.00 0.00 0.00 84 1011.4
20260505055505 13 202 4.8 9.7 0.00 0.00 0.00 84 1011.3
20260505055003 13 187 0.0 4.8 0.00 0.00 0.00 84 1011.2
20260505054511 13 130 0.0 3.2 0.00 0.00 0.00 84 1011.2
20260505054003 14 180 0.0 8.0 0.00 0.00 0.00 83 1011.2
20260505053503 14 61 1.6 8.0 0.00 0.00 0.00 81 1011.2
20260505053011 15 35 1.6 4.8 0.00 0.00 0.00 81 1011.0
20260505052504 15 34 1.6 4.8 0.00 0.00 0.00 81 1011.0
20260505052005 15 34 0.0 3.2 0.00 0.00 0.00 81 1011.0
20260505051513 15 34 0.0 3.2 0.00 0.00 0.00 79 1010.9
20260505051004 15 34 0.0 0.0 0.00 0.00 0.00 80 1010.8
20260505050508 15 34 0.0 0.0 0.00 0.00 0.00 80 1010.9
20260505041526 16 34 1.6 6.4 0.00 0.00 0.00 76 1010.4
20260505041007 16 350 1.6 4.8 0.00 0.00 0.00 76 1010.3
20260505040504 16 360 1.6 3.2 0.00 0.00 0.00 74 1010.0
20260505040016 17 5 1.6 4.8 0.00 0.00 0.00 73 1010.0
20260505035507 17 9 1.6 0.0 0.00 0.00 0.00 70 1009.9
20260505035007 17 9 3.2 4.8 0.00 0.00 0.00 70 1009.8
20260505034513 17 5 3.2 4.8 0.00 0.00 0.00 71 1009.8
20260505034012 17 5 1.6 3.2 0.00 0.00 0.00 70 1009.8
20260505033513 17 5 1.6 0.0 0.00 0.00 0.00 69 1009.8
20260505033031 17 5 1.6 4.8 0.00 0.00 0.00 70 1009.7
20260505032505 17 5 1.6 4.8 0.00 0.00 0.00 70 1009.6
20260505032139 13 216 1.6 8.0 0.00 0.00 0.00 76 1009.3
20260505032132 15 157 4.8 9.7 0.00 0.00 0.00 76 1009.2
20260505032128 13 159 0.0 3.2 0.00 0.00 0.00 79 1009.0
20260505032124 13 159 0.0 8.0 0.00 0.00 0.00 77 1009.1
20260505032120 13 159 0.0 11.3 0.00 0.00 0.00 76 1009.2
20260505032117 13 170 3.2 11.3 0.00 0.00 0.00 75 1009.3
20260505032113 13 345 0.0 6.4 0.00 0.00 0.00 78 1009.0
20260505032109 13 344 3.2 6.4 0.00 0.00 0.00 78 1009.0
20260505032102 13 19 0.0 6.4 0.00 0.00 0.00 80 1009.5
20260505032054 13 268 0.0 6.4 0.00 0.00 0.00 81 1009.6
20260505032051 12 284 0.0 6.4 0.00 0.00 0.00 82 1009.6
20260505032040 12 139 0.0 6.4 0.00 0.00 0.00 79 1009.7
20260505032030 12 214 0.0 0.0 0.00 0.00 0.00 81 1009.8
20260505031845 12 217 3.2 6.4 0.00 0.00 0.00 81 1010.0
20260505031838 12 284 0.0 9.7 0.00 0.00 0.00 82 1009.7
20260505031836 12 284 1.6 9.7 0.00 0.00 0.00 81 1009.8
20260505031827 12 13 0.0 8.0 0.00 0.00 0.00 81 1009.8
20260505031825 12 13 4.8 8.0 0.00 0.00 0.00 82 1009.6
20260505031817 11 234 0.0 4.8 0.00 0.00 0.00 80 1009.8
20260505031814 11 234 0.0 4.8 0.00 0.00 0.00 79 1009.9
20260505031808 11 238 0.0 4.8 0.00 0.00 0.00 81 1009.5
20260505031759 11 238 0.0 4.8 0.00 0.00 0.00 80 1009.5
20260505031752 11 238 3.2 4.8 0.00 0.00 0.00 81 1009.6
20260505031739 11 349 0.0 0.0 0.00 0.00 0.00 80 1009.4